Time,TemperatureF,DewpointF,PressureIn,WindDirection,WindDirectionDegrees,WindSpeedMPH,WindSpeedGustMPH,Humidity,HourlyPrecipIn,Conditions,Clouds,dailyrainin,SoftwareType,DateUTC
2013-05-23 00:00:00,72.2,58.0,28.99,SE,135,6.0,7.0,61,0.00,,,0.00,Rainwise IP-100,2013-05-23 04:00:00,
2013-05-23 00:01:00,72.2,58.0,28.99,SE,135,6.0,7.0,61,0.00,,,0.00,Rainwise IP-100,2013-05-23 04:01:00,
2013-05-23 00:06:00,72.2,58.0,28.99,SSE,157,6.0,6.0,61,0.00,,,0.00,Rainwise IP-100,2013-05-23 04:06:00,
2013-05-23 00:08:00,72.3,58.0,28.99,SSE,157,6.0,6.0,61,0.00,,,0.00,Rainwise IP-100,2013-05-23 04:08:00,
2013-05-23 00:12:00,72.1,57.5,28.99,SE,135,5.0,6.0,61,0.00,,,0.00,Rainwise IP-100,2013-05-23 04:12:00,
2013-05-23 00:16:00,72.2,57.5,28.99,SE,135,5.0,9.0,60,0.00,,,0.00,Rainwise IP-100,2013-05-23 04:16:00,
2013-05-23 00:21:00,72.2,59.0,28.99,SSE,157,6.0,0.0,62,0.00,,,0.00,Rainwise IP-100,2013-05-23 04:21:00,
2013-05-23 00:26:00,72.2,58.0,28.99,South,180,6.0,9.0,61,0.00,,,0.00,Rainwise IP-100,2013-05-23 04:26:00,
2013-05-23 00:31:00,72.1,58.0,28.99,SE,135,4.0,7.0,62,0.00,,,0.00,Rainwise IP-100,2013-05-23 04:31:00,
2013-05-23 00:36:00,72.0,57.5,28.99,SSE,157,7.0,7.0,61,0.00,,,0.00,Rainwise IP-100,2013-05-23 04:36:00,
2013-05-23 00:41:00,71.9,58.0,28.99,SSE,157,6.0,11.0,62,0.00,,,0.00,Rainwise IP-100,2013-05-23 04:41:00,
2013-05-23 00:43:00,71.9,58.0,28.99,SSE,157,6.0,11.0,62,0.00,,,0.00,Rainwise IP-100,2013-05-23 04:43:00,
2013-05-23 00:59:00,71.7,59.0,28.99,SE,135,2.0,0.0,64,0.00,,,0.00,Rainwise IP-100,2013-05-23 04:59:00,
2013-05-23 01:04:00,71.4,58.0,28.99,SE,135,5.0,7.0,64,0.00,,,0.00,Rainwise IP-100,2013-05-23 05:04:00,
2013-05-23 01:09:00,71.2,59.0,28.99,SE,135,6.0,8.0,65,0.00,,,0.00,Rainwise IP-100,2013-05-23 05:09:00,
2013-05-23 01:14:00,70.9,58.0,28.99,SE,135,7.0,8.0,64,0.00,,,0.00,Rainwise IP-100,2013-05-23 05:14:00,
2013-05-23 01:19:00,71.1,58.0,28.98,SSE,157,7.0,7.0,65,0.00,,,0.00,Rainwise IP-100,2013-05-23 05:19:00,
2013-05-23 01:24:00,70.8,58.0,28.98,SSE,157,6.0,10.0,65,0.00,,,0.00,Rainwise IP-100,2013-05-23 05:24:00,
2013-05-23 01:29:00,70.9,59.0,28.98,SSE,157,16.0,18.0,66,0.00,,,0.00,Rainwise IP-100,2013-05-23 05:29:00,
2013-05-23 01:34:00,71.1,59.0,28.98,South,180,7.0,16.0,66,0.00,,,0.00,Rainwise IP-100,2013-05-23 05:34:00,
2013-05-23 01:39:00,70.9,59.0,28.98,SE,135,6.0,12.0,66,0.00,,,0.00,Rainwise IP-100,2013-05-23 05:39:00,
2013-05-23 01:44:00,70.9,59.0,28.98,SSE,157,12.0,14.0,66,0.00,,,0.00,Rainwise IP-100,2013-05-23 05:44:00,
2013-05-23 01:49:00,70.8,59.5,28.98,South,180,14.0,14.0,67,0.00,,,0.00,Rainwise IP-100,2013-05-23 05:49:00,
2013-05-23 01:54:00,70.6,59.5,28.97,SSE,157,8.0,14.0,68,0.00,,,0.00,Rainwise IP-100,2013-05-23 05:54:00,
2013-05-23 01:59:00,70.4,59.5,28.97,SE,135,6.0,10.0,68,0.00,,,0.00,Rainwise IP-100,2013-05-23 05:59:00,
2013-05-23 02:04:00,70.3,60.0,28.97,SE,135,11.0,11.0,69,0.00,,,0.00,Rainwise IP-100,2013-05-23 06:04:00,
2013-05-23 02:09:00,70.3,60.0,28.97,SSE,157,6.0,11.0,69,0.00,,,0.00,Rainwise IP-100,2013-05-23 06:09:00,
2013-05-23 02:14:00,70.1,59.5,28.97,South,180,2.0,4.0,69,0.00,,,0.00,Rainwise IP-100,2013-05-23 06:14:00,
2013-05-23 02:19:00,69.9,60.0,28.97,SSE,157,6.0,7.0,70,0.00,,,0.00,Rainwise IP-100,2013-05-23 06:19:00,
2013-05-23 02:24:00,70.0,60.0,28.96,SSE,157,12.0,12.0,70,0.00,,,0.00,Rainwise IP-100,2013-05-23 06:24:00,
2013-05-23 02:29:00,70.1,59.5,28.96,South,180,8.0,14.0,69,0.00,,,0.00,Rainwise IP-100,2013-05-23 06:29:00,
2013-05-23 02:34:00,70.0,60.0,28.96,SSE,157,6.0,7.0,70,0.00,,,0.00,Rainwise IP-100,2013-05-23 06:34:00,
2013-05-23 02:39:00,69.9,60.0,28.96,South,180,4.0,8.0,70,0.00,,,0.00,Rainwise IP-100,2013-05-23 06:39:00,
2013-05-23 02:44:00,69.9,60.0,28.96,SSW,202,7.0,11.0,70,0.00,,,0.00,Rainwise IP-100,2013-05-23 06:44:00,
2013-05-23 02:49:00,70.0,60.0,28.96,SSE,157,7.0,10.0,70,0.00,,,0.00,Rainwise IP-100,2013-05-23 06:49:00,
2013-05-23 02:54:00,69.9,60.5,28.96,South,180,6.0,11.0,71,0.00,,,0.00,Rainwise IP-100,2013-05-23 06:54:00,
2013-05-23 02:59:00,69.9,60.0,28.96,SW,225,2.0,10.0,70,0.00,,,0.00,Rainwise IP-100,2013-05-23 06:59:00,
2013-05-23 03:04:00,69.9,60.0,28.96,South,180,4.0,6.0,70,0.00,,,0.00,Rainwise IP-100,2013-05-23 07:04:00,
2013-05-23 03:09:00,69.8,60.0,28.96,SSW,202,5.0,6.0,71,0.00,,,0.00,Rainwise IP-100,2013-05-23 07:09:00,
2013-05-23 03:14:00,69.5,60.5,28.96,SSE,157,3.0,5.0,72,0.00,,,0.00,Rainwise IP-100,2013-05-23 07:14:00,
2013-05-23 03:19:00,69.6,60.5,28.96,South,180,5.0,8.0,72,0.00,,,0.00,Rainwise IP-100,2013-05-23 07:19:00,
2013-05-23 03:24:00,69.3,60.5,28.96,SSW,202,2.0,6.0,73,0.00,,,0.00,Rainwise IP-100,2013-05-23 07:24:00,
2013-05-23 03:29:00,69.3,60.5,28.96,South,180,6.0,7.0,73,0.00,,,0.00,Rainwise IP-100,2013-05-23 07:29:00,
2013-05-23 03:34:00,69.2,60.5,28.96,SSW,202,2.0,9.0,73,0.00,,,0.00,Rainwise IP-100,2013-05-23 07:34:00,
2013-05-23 03:39:00,68.9,60.5,28.96,South,180,2.0,5.0,74,0.00,,,0.00,Rainwise IP-100,2013-05-23 07:39:00,
2013-05-23 03:44:00,68.9,60.5,28.96,South,180,4.0,6.0,74,0.00,,,0.00,Rainwise IP-100,2013-05-23 07:44:00,
2013-05-23 03:49:00,68.9,60.5,28.96,South,180,5.0,5.0,74,0.00,,,0.00,Rainwise IP-100,2013-05-23 07:49:00,
2013-05-23 03:54:00,68.7,60.5,28.96,SSE,157,6.0,6.0,75,0.00,,,0.00,Rainwise IP-100,2013-05-23 07:54:00,
2013-05-23 03:59:00,68.7,60.5,28.97,South,180,3.0,3.0,75,0.00,,,0.00,Rainwise IP-100,2013-05-23 07:59:00,
2013-05-23 04:04:00,68.5,60.5,28.96,SSE,157,4.0,4.0,76,0.00,,,0.00,Rainwise IP-100,2013-05-23 08:04:00,
2013-05-23 04:13:00,68.3,61.0,28.97,South,180,6.0,0.0,77,0.00,,,0.00,Rainwise IP-100,2013-05-23 08:13:00,
2013-05-23 04:18:00,68.2,60.5,28.96,SSE,157,2.0,6.0,77,0.00,,,0.00,Rainwise IP-100,2013-05-23 08:18:00,
2013-05-23 04:23:00,68.1,61.0,28.97,South,180,2.0,4.0,78,0.00,,,0.00,Rainwise IP-100,2013-05-23 08:23:00,
2013-05-23 04:43:00,68.1,61.0,28.97,South,180,2.0,4.0,78,0.00,,,0.00,Rainwise IP-100,2013-05-23 08:43:00,
2013-05-23 04:48:00,68.0,61.5,28.97,SSE,157,6.0,6.0,79,0.00,,,0.00,Rainwise IP-100,2013-05-23 08:48:00,
2013-05-23 05:03:00,67.9,61.5,28.97,SSE,157,2.0,0.0,79,0.00,,,0.00,Rainwise IP-100,2013-05-23 09:03:00,
2013-05-23 06:39:00,67.6,62.0,28.97,SSE,157,2.0,0.0,82,0.00,,,0.00,Rainwise IP-100,2013-05-23 10:39:00,
2013-05-23 08:30:00,70.0,63.5,29.00,SE,135,2.0,0.0,80,0.00,,,0.00,Rainwise IP-100,2013-05-23 12:30:00,
2013-05-23 08:37:00,70.4,62.5,29.00,SSE,157,4.0,0.0,76,0.00,,,0.00,Rainwise IP-100,2013-05-23 12:37:00,
2013-05-23 08:45:00,70.8,62.0,29.00,SSE,157,6.0,0.0,74,0.00,,,0.00,Rainwise IP-100,2013-05-23 12:45:00,
2013-05-23 08:50:00,71.1,61.5,29.00,South,180,4.0,7.0,73,0.00,,,0.00,Rainwise IP-100,2013-05-23 12:50:00,
2013-05-23 08:57:00,71.1,61.5,29.00,South,180,4.0,4.0,73,0.00,,,0.00,Rainwise IP-100,2013-05-23 12:57:00,
2013-05-23 09:02:00,71.4,61.5,29.00,South,180,9.0,9.0,71,0.00,,,0.00,Rainwise IP-100,2013-05-23 13:02:00,
2013-05-23 09:07:00,71.5,62.0,29.01,South,180,6.0,11.0,72,0.00,,,0.00,Rainwise IP-100,2013-05-23 13:07:00,
2013-05-23 09:12:00,71.6,62.0,29.01,SSE,157,9.0,9.0,72,0.00,,,0.00,Rainwise IP-100,2013-05-23 13:12:00,
2013-05-23 09:17:00,71.6,61.0,29.01,South,180,10.0,10.0,69,0.00,,,0.00,Rainwise IP-100,2013-05-23 13:17:00,
2013-05-23 09:22:00,71.9,62.0,29.01,SSW,202,6.0,11.0,71,0.00,,,0.00,Rainwise IP-100,2013-05-23 13:22:00,
2013-05-23 09:27:00,72.8,61.5,29.01,South,180,4.0,14.0,68,0.00,,,0.00,Rainwise IP-100,2013-05-23 13:27:00,
2013-05-23 09:32:00,73.0,62.5,29.01,SE,135,10.0,11.0,69,0.00,,,0.00,Rainwise IP-100,2013-05-23 13:32:00,
2013-05-23 09:37:00,72.9,62.0,29.01,South,180,7.0,12.0,68,0.00,,,0.00,Rainwise IP-100,2013-05-23 13:37:00,
2013-05-23 09:42:00,73.4,62.0,29.01,South,180,10.0,11.0,68,0.00,,,0.00,Rainwise IP-100,2013-05-23 13:42:00,
2013-05-23 09:47:00,73.5,63.0,29.01,South,180,9.0,14.0,69,0.00,,,0.00,Rainwise IP-100,2013-05-23 13:47:00,
2013-05-23 09:52:00,73.3,61.5,29.01,SSE,157,6.0,12.0,66,0.00,,,0.00,Rainwise IP-100,2013-05-23 13:52:00,
2013-05-23 09:57:00,73.4,62.0,29.01,SSE,157,4.0,15.0,67,0.00,,,0.00,Rainwise IP-100,2013-05-23 13:57:00,
2013-05-23 10:02:00,73.2,62.0,29.01,South,180,5.0,17.0,67,0.00,,,0.00,Rainwise IP-100,2013-05-23 14:02:00,
2013-05-23 10:07:00,73.3,62.0,29.01,SW,225,12.0,12.0,68,0.00,,,0.00,Rainwise IP-100,2013-05-23 14:07:00,
2013-05-23 10:12:00,73.6,61.5,29.01,South,180,11.0,12.0,66,0.00,,,0.00,Rainwise IP-100,2013-05-23 14:12:00,
2013-05-23 10:17:00,73.7,62.0,29.01,South,180,6.0,14.0,67,0.00,,,0.00,Rainwise IP-100,2013-05-23 14:17:00,
2013-05-23 10:22:00,73.4,62.0,29.02,South,180,6.0,16.0,67,0.00,,,0.00,Rainwise IP-100,2013-05-23 14:22:00,
2013-05-23 10:27:00,73.7,62.5,29.02,South,180,7.0,9.0,68,0.00,,,0.00,Rainwise IP-100,2013-05-23 14:27:00,
2013-05-23 10:32:00,73.3,62.0,29.02,SSW,202,4.0,12.0,68,0.00,,,0.00,Rainwise IP-100,2013-05-23 14:32:00,
2013-05-23 10:37:00,73.1,62.5,29.02,SSE,157,3.0,13.0,69,0.00,,,0.00,Rainwise IP-100,2013-05-23 14:37:00,
2013-05-23 10:42:00,72.8,61.5,29.02,South,180,4.0,12.0,68,0.00,,,0.00,Rainwise IP-100,2013-05-23 14:42:00,
2013-05-23 10:47:00,72.7,62.0,29.01,SSW,202,5.0,12.0,69,0.00,,,0.00,Rainwise IP-100,2013-05-23 14:47:00,
2013-05-23 10:52:00,72.2,61.5,29.01,South,180,10.0,12.0,69,0.00,,,0.00,Rainwise IP-100,2013-05-23 14:52:00,
2013-05-23 10:57:00,71.9,61.5,29.01,South,180,8.0,17.0,69,0.00,,,0.00,Rainwise IP-100,2013-05-23 14:57:00,
2013-05-23 11:02:00,71.5,61.5,29.01,South,180,9.0,14.0,71,0.00,,,0.00,Rainwise IP-100,2013-05-23 15:02:00,
2013-05-23 11:07:00,71.4,61.5,29.01,South,180,4.0,14.0,71,0.00,,,0.00,Rainwise IP-100,2013-05-23 15:07:00,
2013-05-23 11:12:00,71.5,62.0,29.01,SSE,157,7.0,14.0,72,0.00,,,0.00,Rainwise IP-100,2013-05-23 15:12:00,
2013-05-23 11:17:00,71.6,61.5,29.01,SSW,202,11.0,12.0,71,0.00,,,0.00,Rainwise IP-100,2013-05-23 15:17:00,
2013-05-23 11:22:00,71.8,61.5,29.01,South,180,5.0,14.0,71,0.00,,,0.00,Rainwise IP-100,2013-05-23 15:22:00,
2013-05-23 11:27:00,71.9,62.0,29.01,South,180,12.0,12.0,71,0.00,,,0.00,Rainwise IP-100,2013-05-23 15:27:00,
2013-05-23 11:32:00,71.9,62.0,29.01,SSE,157,6.0,14.0,71,0.00,,,0.00,Rainwise IP-100,2013-05-23 15:32:00,
2013-05-23 11:37:00,71.7,61.5,29.01,SSE,157,6.0,11.0,71,0.00,,,0.00,Rainwise IP-100,2013-05-23 15:37:00,
2013-05-23 11:42:00,71.8,61.5,29.01,South,180,7.0,12.0,71,0.00,,,0.00,Rainwise IP-100,2013-05-23 15:42:00,
2013-05-23 11:47:00,71.9,61.5,29.01,South,180,9.0,11.0,70,0.00,,,0.00,Rainwise IP-100,2013-05-23 15:47:00,
2013-05-23 11:52:00,71.9,62.5,29.01,SSE,157,4.0,11.0,72,0.00,,,0.00,Rainwise IP-100,2013-05-23 15:52:00,
2013-05-23 11:57:00,71.9,62.0,29.01,SE,135,9.0,12.0,71,0.00,,,0.00,Rainwise IP-100,2013-05-23 15:57:00,
2013-05-23 12:02:00,71.9,62.0,29.01,SSE,157,6.0,10.0,71,0.00,,,0.00,Rainwise IP-100,2013-05-23 16:02:00,
2013-05-23 12:07:00,71.9,62.5,29.01,SE,135,4.0,11.0,72,0.00,,,0.00,Rainwise IP-100,2013-05-23 16:07:00,
2013-05-23 12:12:00,71.9,63.0,29.01,SSE,157,7.0,11.0,73,0.00,,,0.00,Rainwise IP-100,2013-05-23 16:12:00,
2013-05-23 12:17:00,72.0,62.5,29.01,SSE,157,6.0,11.0,72,0.00,,,0.00,Rainwise IP-100,2013-05-23 16:17:00,
2013-05-23 12:22:00,72.1,62.0,29.01,South,180,5.0,11.0,71,0.00,,,0.00,Rainwise IP-100,2013-05-23 16:22:00,
2013-05-23 12:27:00,72.2,62.0,29.00,South,180,8.0,12.0,70,0.00,,,0.00,Rainwise IP-100,2013-05-23 16:27:00,
2013-05-23 12:32:00,72.3,62.5,29.00,SSE,157,10.0,14.0,71,0.00,,,0.00,Rainwise IP-100,2013-05-23 16:32:00,
2013-05-23 12:37:00,72.6,63.0,29.00,SSE,157,6.0,14.0,71,0.00,,,0.00,Rainwise IP-100,2013-05-23 16:37:00,
2013-05-23 12:42:00,72.8,63.0,28.99,SE,135,9.0,12.0,71,0.00,,,0.00,Rainwise IP-100,2013-05-23 16:42:00,
2013-05-23 12:47:00,72.9,62.5,28.99,SSE,157,7.0,11.0,70,0.00,,,0.00,Rainwise IP-100,2013-05-23 16:47:00,
2013-05-23 12:52:00,73.3,63.5,28.99,SSE,157,10.0,12.0,71,0.00,,,0.00,Rainwise IP-100,2013-05-23 16:52:00,
2013-05-23 12:57:00,73.9,64.5,28.99,SSE,157,7.0,13.0,72,0.00,,,0.00,Rainwise IP-100,2013-05-23 16:57:00,
2013-05-23 13:02:00,74.1,64.0,28.99,SSE,157,11.0,13.0,71,0.00,,,0.00,Rainwise IP-100,2013-05-23 17:02:00,
2013-05-23 13:07:00,74.7,64.0,28.99,SSE,157,6.0,12.0,69,0.00,,,0.00,Rainwise IP-100,2013-05-23 17:07:00,
2013-05-23 13:12:00,75.0,62.0,28.99,SE,135,9.0,13.0,64,0.00,,,0.00,Rainwise IP-100,2013-05-23 17:12:00,
2013-05-23 13:17:00,75.1,63.5,28.99,South,180,9.0,13.0,67,0.00,,,0.00,Rainwise IP-100,2013-05-23 17:17:00,
2013-05-23 13:22:00,75.5,62.5,28.99,SSE,157,4.0,12.0,64,0.00,,,0.00,Rainwise IP-100,2013-05-23 17:22:00,
2013-05-23 13:27:00,75.8,63.5,28.99,SSE,157,9.0,16.0,65,0.00,,,0.00,Rainwise IP-100,2013-05-23 17:27:00,
2013-05-23 13:32:00,76.1,62.0,28.99,SE,135,7.0,12.0,62,0.00,,,0.00,Rainwise IP-100,2013-05-23 17:32:00,
2013-05-23 13:37:00,76.3,62.5,28.98,SSE,157,7.0,17.0,63,0.00,,,0.00,Rainwise IP-100,2013-05-23 17:37:00,
2013-05-23 13:42:00,76.5,62.5,28.98,South,180,7.0,14.0,62,0.00,,,0.00,Rainwise IP-100,2013-05-23 17:42:00,
2013-05-23 13:47:00,76.5,62.0,28.98,SW,225,11.0,12.0,61,0.00,,,0.00,Rainwise IP-100,2013-05-23 17:47:00,
2013-05-23 13:52:00,73.5,61.5,28.99,West,270,11.0,14.0,66,0.00,,,0.00,Rainwise IP-100,2013-05-23 17:52:00,
2013-05-23 13:57:00,71.9,62.0,28.99,WNW,292,5.0,12.0,71,0.00,,,0.00,Rainwise IP-100,2013-05-23 17:57:00,
2013-05-23 14:02:00,70.3,63.0,28.99,WNW,292,9.0,14.0,77,0.18,,,0.03,Rainwise IP-100,2013-05-23 18:02:00,
2013-05-23 14:07:00,68.1,63.0,28.98,NW,315,4.0,14.0,84,0.90,,,0.15,Rainwise IP-100,2013-05-23 18:07:00,
2013-05-23 14:12:00,67.0,63.5,28.97,NW,315,7.0,7.0,88,0.78,,,0.16,Rainwise IP-100,2013-05-23 18:12:00,
2013-05-23 14:17:00,67.2,63.0,28.97,NW,315,4.0,9.0,87,0.06,,,0.16,Rainwise IP-100,2013-05-23 18:17:00,
2013-05-23 14:22:00,67.3,64.0,28.96,NW,315,0.0,5.0,88,0.12,,,0.18,Rainwise IP-100,2013-05-23 18:22:00,
2013-05-23 14:27:00,67.3,64.5,28.97,East,90,2.0,2.0,90,0.18,,,0.19,Rainwise IP-100,2013-05-23 18:27:00,
2013-05-23 14:32:00,66.9,65.0,28.96,NNE,22,2.0,2.0,92,0.12,,,0.20,Rainwise IP-100,2013-05-23 18:32:00,
2013-05-23 14:37:00,67.6,66.0,28.97,NNE,22,0.0,2.0,94,0.06,,,0.20,Rainwise IP-100,2013-05-23 18:37:00,
2013-05-23 14:42:00,68.2,66.3,28.96,NE,45,0.0,2.0,94,0.00,,,0.20,Rainwise IP-100,2013-05-23 18:42:00,
2013-05-23 14:47:00,68.2,65.5,28.96,ESE,112,1.0,2.0,92,0.00,,,0.20,Rainwise IP-100,2013-05-23 18:47:00,
2013-05-23 14:52:00,68.4,65.5,28.96,SE,135,1.0,2.0,90,0.00,,,0.20,Rainwise IP-100,2013-05-23 18:52:00,
2013-05-23 14:57:00,68.8,65.5,28.97,ESE,112,0.0,2.0,89,0.00,,,0.20,Rainwise IP-100,2013-05-23 18:57:00,
2013-05-23 15:02:00,69.3,65.5,28.96,WSW,247,4.0,9.0,87,0.00,,,0.20,Rainwise IP-100,2013-05-23 19:02:00,
2013-05-23 15:07:00,70.0,63.0,28.96,WSW,247,6.0,12.0,78,0.00,,,0.20,Rainwise IP-100,2013-05-23 19:07:00,
2013-05-23 15:12:00,70.0,62.5,28.96,WNW,292,4.0,9.0,77,0.00,,,0.20,Rainwise IP-100,2013-05-23 19:12:00,
2013-05-23 15:17:00,69.5,60.5,28.96,SW,225,3.0,10.0,73,0.00,,,0.20,Rainwise IP-100,2013-05-23 19:17:00,
2013-05-23 15:22:00,68.7,60.0,28.96,SW,225,6.0,12.0,74,0.00,,,0.20,Rainwise IP-100,2013-05-23 19:22:00,
2013-05-23 15:27:00,68.1,60.5,28.96,SW,225,2.0,7.0,77,0.00,,,0.20,Rainwise IP-100,2013-05-23 19:27:00,
2013-05-23 15:32:00,67.9,61.5,28.96,WSW,247,3.0,7.0,79,0.00,,,0.20,Rainwise IP-100,2013-05-23 19:32:00,
2013-05-23 15:37:00,67.9,61.5,28.96,SSW,202,4.0,5.0,80,0.00,,,0.20,Rainwise IP-100,2013-05-23 19:37:00,
2013-05-23 15:42:00,67.9,61.5,28.96,SW,225,4.0,6.0,79,0.00,,,0.20,Rainwise IP-100,2013-05-23 19:42:00,
2013-05-23 15:47:00,67.6,61.5,28.96,SW,225,3.0,5.0,81,0.00,,,0.20,Rainwise IP-100,2013-05-23 19:47:00,
2013-05-23 15:52:00,67.4,62.0,28.95,West,270,2.0,5.0,83,0.00,,,0.20,Rainwise IP-100,2013-05-23 19:52:00,
2013-05-23 15:57:00,67.4,63.0,28.96,South,180,2.0,3.0,85,0.06,,,0.21,Rainwise IP-100,2013-05-23 19:57:00,
2013-05-23 16:02:00,67.1,63.0,28.96,SSE,157,2.0,6.0,87,0.06,,,0.21,Rainwise IP-100,2013-05-23 20:02:00,
2013-05-23 16:07:00,66.7,63.0,28.96,South,180,2.0,6.0,88,0.06,,,0.22,Rainwise IP-100,2013-05-23 20:07:00,
2013-05-23 16:12:00,66.4,62.5,28.97,SSW,202,3.0,4.0,88,0.12,,,0.23,Rainwise IP-100,2013-05-23 20:12:00,
2013-05-23 16:17:00,66.2,62.5,28.97,South,180,6.0,7.0,88,0.06,,,0.23,Rainwise IP-100,2013-05-23 20:17:00,
2013-05-23 16:22:00,66.1,63.0,28.97,South,180,4.0,7.0,90,0.06,,,0.24,Rainwise IP-100,2013-05-23 20:22:00,
2013-05-23 16:27:00,65.9,62.5,28.97,WSW,247,7.0,7.0,89,0.18,,,0.26,Rainwise IP-100,2013-05-23 20:27:00,
2013-05-23 16:32:00,66.1,63.0,28.97,WSW,247,6.0,10.0,91,0.12,,,0.26,Rainwise IP-100,2013-05-23 20:32:00,
2013-05-23 16:37:00,66.3,63.5,28.97,WSW,247,4.0,10.0,91,0.00,,,0.26,Rainwise IP-100,2013-05-23 20:37:00,
2013-05-23 16:42:00,66.5,64.0,28.97,WSW,247,4.0,8.0,91,0.00,,,0.26,Rainwise IP-100,2013-05-23 20:42:00,
2013-05-23 16:47:00,66.9,64.5,28.96,West,270,2.0,7.0,91,0.00,,,0.26,Rainwise IP-100,2013-05-23 20:47:00,
2013-05-23 16:52:00,67.3,64.5,28.96,WSW,247,3.0,7.0,90,0.00,,,0.26,Rainwise IP-100,2013-05-23 20:52:00,
2013-05-23 16:57:00,67.6,64.5,28.95,SW,225,4.0,6.0,89,0.00,,,0.26,Rainwise IP-100,2013-05-23 20:57:00,
2013-05-23 17:02:00,67.6,63.0,28.95,WSW,247,2.0,7.0,86,0.00,,,0.26,Rainwise IP-100,2013-05-23 21:02:00,
2013-05-23 17:07:00,67.5,62.5,28.95,WSW,247,4.0,6.0,84,0.00,,,0.26,Rainwise IP-100,2013-05-23 21:07:00,
2013-05-23 17:12:00,67.4,62.5,28.95,WSW,247,2.0,9.0,84,0.00,,,0.26,Rainwise IP-100,2013-05-23 21:12:00,
2013-05-23 17:17:00,67.4,63.0,28.95,SW,225,2.0,4.0,85,0.00,,,0.26,Rainwise IP-100,2013-05-23 21:17:00,
2013-05-23 17:22:00,67.4,63.0,28.95,SW,225,1.0,4.0,85,0.00,,,0.26,Rainwise IP-100,2013-05-23 21:22:00,
2013-05-23 17:27:00,67.5,63.0,28.95,SW,225,1.0,2.0,85,0.00,,,0.26,Rainwise IP-100,2013-05-23 21:27:00,
2013-05-23 17:32:00,67.7,63.0,28.95,South,180,2.0,2.0,85,0.00,,,0.26,Rainwise IP-100,2013-05-23 21:32:00,
2013-05-23 17:37:00,67.9,62.5,28.95,WNW,292,2.0,3.0,83,0.00,,,0.26,Rainwise IP-100,2013-05-23 21:37:00,
2013-05-23 17:43:00,67.9,62.5,28.95,WNW,292,1.0,2.0,82,0.00,,,0.26,Rainwise IP-100,2013-05-23 21:43:00,
2013-05-23 17:48:00,68.0,62.0,28.95,West,270,2.0,3.0,81,0.00,,,0.26,Rainwise IP-100,2013-05-23 21:48:00,
2013-05-23 17:53:00,68.2,61.5,28.95,WSW,247,3.0,5.0,80,0.00,,,0.26,Rainwise IP-100,2013-05-23 21:53:00,
2013-05-23 17:58:00,68.2,61.0,28.96,WSW,247,2.0,5.0,78,0.00,,,0.26,Rainwise IP-100,2013-05-23 21:58:00,
2013-05-23 18:03:00,68.1,60.5,28.96,SW,225,1.0,5.0,77,0.00,,,0.26,Rainwise IP-100,2013-05-23 22:03:00,
2013-05-23 18:08:00,68.3,62.5,28.96,SSE,157,1.0,2.0,81,0.00,,,0.26,Rainwise IP-100,2013-05-23 22:08:00,
2013-05-23 18:13:00,68.2,62.0,28.96,SSW,202,2.0,2.0,81,0.00,,,0.26,Rainwise IP-100,2013-05-23 22:13:00,
2013-05-23 18:18:00,68.1,62.0,28.96,SW,225,1.0,2.0,81,0.00,,,0.26,Rainwise IP-100,2013-05-23 22:18:00,
2013-05-23 18:23:00,68.0,62.5,28.96,SW,225,0.0,2.0,82,0.00,,,0.26,Rainwise IP-100,2013-05-23 22:23:00,
2013-05-23 18:28:00,67.9,62.5,28.97,South,180,1.0,2.0,82,0.00,,,0.26,Rainwise IP-100,2013-05-23 22:28:00,
2013-05-23 18:33:00,67.7,63.0,28.97,NE,45,2.0,2.0,85,0.00,,,0.26,Rainwise IP-100,2013-05-23 22:33:00,
2013-05-23 18:38:00,67.5,64.5,28.96,NE,45,2.0,2.0,89,0.00,,,0.26,Rainwise IP-100,2013-05-23 22:38:00,
2013-05-23 18:43:00,67.1,64.0,28.96,NE,45,2.0,2.0,89,0.00,,,0.26,Rainwise IP-100,2013-05-23 22:43:00,
2013-05-23 18:48:00,66.9,64.5,28.96,NE,45,0.0,2.0,91,0.00,,,0.26,Rainwise IP-100,2013-05-23 22:48:00,
2013-05-23 18:54:00,66.7,64.5,28.96,NE,45,0.0,0.0,92,0.00,,,0.26,Rainwise IP-100,2013-05-23 22:54:00,
2013-05-23 18:59:00,66.8,64.0,28.96,NE,45,0.0,0.0,91,0.00,,,0.26,Rainwise IP-100,2013-05-23 22:59:00,
2013-05-23 19:04:00,66.7,64.5,28.97,NE,45,0.0,0.0,92,0.00,,,0.26,Rainwise IP-100,2013-05-23 23:04:00,
2013-05-23 19:09:00,66.6,64.0,28.97,South,180,2.0,2.0,91,0.00,,,0.26,Rainwise IP-100,2013-05-23 23:09:00,
2013-05-23 19:14:00,66.6,64.0,28.97,SSE,157,1.0,2.0,91,0.06,,,0.27,Rainwise IP-100,2013-05-23 23:14:00,
2013-05-23 19:19:00,66.5,64.0,28.97,SSE,157,1.0,2.0,91,0.06,,,0.27,Rainwise IP-100,2013-05-23 23:19:00,
2013-05-23 19:24:00,66.4,63.5,28.97,SW,225,0.0,2.0,91,0.00,,,0.27,Rainwise IP-100,2013-05-23 23:24:00,
2013-05-23 19:29:00,66.2,63.5,28.97,SW,225,2.0,3.0,90,0.00,,,0.27,Rainwise IP-100,2013-05-23 23:29:00,
2013-05-23 19:34:00,66.1,63.0,28.97,SSW,202,1.0,2.0,91,0.00,,,0.28,Rainwise IP-100,2013-05-23 23:34:00,
2013-05-23 19:39:00,65.9,63.0,28.98,South,180,2.0,2.0,91,0.06,,,0.28,Rainwise IP-100,2013-05-23 23:39:00,
2013-05-23 19:44:00,65.9,63.5,28.98,South,180,1.0,2.0,92,0.06,,,0.28,Rainwise IP-100,2013-05-23 23:44:00,
2013-05-23 19:49:00,65.9,64.0,28.98,South,180,0.0,2.0,93,0.00,,,0.28,Rainwise IP-100,2013-05-23 23:49:00,
2013-05-23 19:54:00,65.8,64.0,28.98,SSE,157,1.0,2.0,94,0.06,,,0.29,Rainwise IP-100,2013-05-23 23:54:00,
2013-05-23 19:59:00,65.6,63.5,28.98,SSE,157,1.0,2.0,94,0.06,,,0.29,Rainwise IP-100,2013-05-23 23:59:00,
2013-05-23 20:04:00,65.4,64.0,28.98,SSE,157,2.0,2.0,95,0.06,,,0.30,Rainwise IP-100,2013-05-24 00:04:00,
2013-05-23 20:09:00,65.3,64.0,28.98,SE,135,0.0,2.0,95,0.06,,,0.30,Rainwise IP-100,2013-05-24 00:09:00,
2013-05-23 20:14:00,65.1,63.5,28.98,SE,135,0.0,2.0,95,0.00,,,0.30,Rainwise IP-100,2013-05-24 00:14:00,
2013-05-23 20:19:00,64.9,63.5,28.98,South,180,1.0,2.0,95,0.00,,,0.30,Rainwise IP-100,2013-05-24 00:19:00,
2013-05-23 20:24:00,64.7,63.5,28.98,South,180,2.0,3.0,96,0.06,,,0.31,Rainwise IP-100,2013-05-24 00:24:00,
2013-05-23 20:29:00,64.6,63.5,28.98,SSW,202,0.0,6.0,96,0.12,,,0.33,Rainwise IP-100,2013-05-24 00:29:00,
2013-05-23 20:34:00,63.1,61.0,28.98,NNW,337,8.0,10.0,93,0.24,,,0.35,Rainwise IP-100,2013-05-24 00:34:00,
2013-05-23 20:39:00,62.3,61.0,28.99,NW,315,5.0,16.0,95,0.30,,,0.37,Rainwise IP-100,2013-05-24 00:39:00,
2013-05-23 20:44:00,61.6,60.0,28.99,NNW,337,5.0,9.0,95,0.12,,,0.37,Rainwise IP-100,2013-05-24 00:44:00,
2013-05-23 20:49:00,61.1,60.0,28.98,NW,315,6.0,11.0,96,0.00,,,0.37,Rainwise IP-100,2013-05-24 00:49:00,
2013-05-23 20:54:00,60.9,60.0,28.99,NW,315,3.0,6.0,97,0.06,,,0.38,Rainwise IP-100,2013-05-24 00:54:00,
2013-05-23 20:59:00,60.7,59.5,28.99,NW,315,2.0,7.0,97,0.18,,,0.40,Rainwise IP-100,2013-05-24 00:59:00,
2013-05-23 21:04:00,60.5,59.5,28.99,NW,315,6.0,6.0,97,0.12,,,0.40,Rainwise IP-100,2013-05-24 01:04:00,
2013-05-23 21:09:00,60.4,59.5,28.99,WNW,292,6.0,9.0,96,0.06,,,0.41,Rainwise IP-100,2013-05-24 01:09:00,
2013-05-23 21:14:00,60.3,59.5,28.99,West,270,6.0,9.0,97,0.06,,,0.41,Rainwise IP-100,2013-05-24 01:14:00,
2013-05-23 21:19:00,59.7,58.0,28.99,NW,315,6.0,11.0,96,0.06,,,0.42,Rainwise IP-100,2013-05-24 01:19:00,
2013-05-23 21:24:00,59.5,58.0,28.99,NW,315,6.0,8.0,97,0.06,,,0.42,Rainwise IP-100,2013-05-24 01:24:00,
2013-05-23 21:29:00,59.3,58.0,28.98,WNW,292,3.0,9.0,97,0.06,,,0.43,Rainwise IP-100,2013-05-24 01:29:00,
2013-05-23 21:34:00,59.1,57.5,28.98,NW,315,7.0,9.0,96,0.06,,,0.43,Rainwise IP-100,2013-05-24 01:34:00,
2013-05-23 21:39:00,59.1,58.0,28.99,West,270,6.0,10.0,97,0.00,,,0.43,Rainwise IP-100,2013-05-24 01:39:00,
2013-05-23 21:44:00,59.0,57.5,28.98,WNW,292,8.0,12.0,96,0.00,,,0.43,Rainwise IP-100,2013-05-24 01:44:00,
2013-05-23 21:49:00,58.9,58.0,28.98,NW,315,1.0,9.0,97,0.00,,,0.43,Rainwise IP-100,2013-05-24 01:49:00,
2013-05-23 21:54:00,58.7,58.0,28.98,NW,315,6.0,7.0,97,0.00,,,0.43,Rainwise IP-100,2013-05-24 01:54:00,
2013-05-23 21:59:00,58.6,58.0,28.98,NW,315,2.0,7.0,97,0.00,,,0.43,Rainwise IP-100,2013-05-24 01:59:00,
2013-05-23 22:04:00,58.6,58.0,28.99,WNW,292,12.0,12.0,97,0.00,,,0.43,Rainwise IP-100,2013-05-24 02:04:00,
2013-05-23 22:09:00,58.4,57.5,28.99,West,270,7.0,14.0,97,0.06,,,0.44,Rainwise IP-100,2013-05-24 02:09:00,
2013-05-23 22:14:00,58.3,57.5,28.99,NW,315,5.0,11.0,97,0.06,,,0.44,Rainwise IP-100,2013-05-24 02:14:00,
2013-05-23 22:19:00,58.1,57.5,28.99,NW,315,10.0,10.0,97,0.00,,,0.44,Rainwise IP-100,2013-05-24 02:19:00,
2013-05-23 22:24:00,57.9,57.5,28.99,West,270,4.0,12.0,97,0.06,,,0.45,Rainwise IP-100,2013-05-24 02:24:00,
2013-05-23 22:29:00,57.8,57.5,28.99,NW,315,4.0,7.0,97,0.06,,,0.45,Rainwise IP-100,2013-05-24 02:29:00,
2013-05-23 22:34:00,57.6,56.5,28.99,NW,315,6.0,11.0,96,0.00,,,0.45,Rainwise IP-100,2013-05-24 02:34:00,
2013-05-23 22:39:00,56.9,56.5,28.99,NNW,337,6.0,12.0,97,0.00,,,0.45,Rainwise IP-100,2013-05-24 02:39:00,
2013-05-23 22:44:00,56.3,56.0,28.99,NNW,337,11.0,11.0,97,0.00,,,0.45,Rainwise IP-100,2013-05-24 02:44:00,
2013-05-23 22:49:00,55.5,55.0,29.00,WNW,292,9.0,12.0,97,0.00,,,0.45,Rainwise IP-100,2013-05-24 02:49:00,
2013-05-23 22:54:00,54.9,54.5,29.00,NNW,337,4.0,14.0,97,0.00,,,0.45,Rainwise IP-100,2013-05-24 02:54:00,
2013-05-23 22:59:00,54.5,54.0,29.00,NW,315,4.0,11.0,97,0.00,,,0.45,Rainwise IP-100,2013-05-24 02:59:00,
2013-05-23 23:04:00,54.1,53.5,29.01,West,270,13.0,13.0,97,0.00,,,0.45,Rainwise IP-100,2013-05-24 03:04:00,
2013-05-23 23:09:00,53.4,53.0,29.01,NW,315,11.0,14.0,97,0.00,,,0.45,Rainwise IP-100,2013-05-24 03:09:00,
2013-05-23 23:14:00,52.9,52.0,29.01,NW,315,11.0,12.0,97,0.00,,,0.45,Rainwise IP-100,2013-05-24 03:14:00,
2013-05-23 23:19:00,52.8,52.0,29.01,NNW,337,11.0,11.0,97,0.00,,,0.45,Rainwise IP-100,2013-05-24 03:19:00,
2013-05-23 23:25:00,52.5,52.0,29.01,NW,315,9.0,11.0,97,0.06,,,0.46,Rainwise IP-100,2013-05-24 03:25:00,
2013-05-23 23:30:00,52.0,51.0,29.01,North,360,8.0,12.0,97,0.06,,,0.47,Rainwise IP-100,2013-05-24 03:30:00,
2013-05-23 23:37:00,51.7,51.0,29.01,NW,315,7.0,10.0,97,0.12,,,0.47,Rainwise IP-100,2013-05-24 03:37:00,
2013-05-23 23:42:00,51.2,50.5,29.01,NW,315,9.0,9.0,97,0.06,,,0.50,Rainwise IP-100,2013-05-24 03:42:00,
2013-05-23 23:47:00,50.9,50.5,29.01,NW,315,11.0,14.0,97,0.24,,,0.51,Rainwise IP-100,2013-05-24 03:47:00,
2013-05-23 23:53:00,50.7,50.0,29.01,NNW,337,13.0,0.0,97,0.18,,,0.52,Rainwise IP-100,2013-05-24 03:53:00,